{"data":{"norad_id":60382,"intl_designator":"2024-140D","name":"QIANFAN-4","alt_names":[],"object_type":"PAYLOAD","status":"ACTIVE","operator":null,"country":"PRC","launch_date":"2024-08-06","launch_site_code":"TAISC","launch_vehicle":null,"mission":null,"orbit_class":"UNKNOWN","rcs_meters":null,"size_class":null,"mass_kg":null,"dimensions":null,"purposes":[],"wikipedia_slug":null,"has_3d_model":false,"image_url":null,"decayed_at":null,"tle_current":{"epoch":"2026-05-25T03:54:44.925408Z","epoch_age_seconds":54338,"freshness":"FRESH","line1":"1 60382U 24140D   26145.16301997  .00000105  00000+0  14328-3 0  9990","line2":"2 60382  88.9718 282.1951 0014893  81.6175 278.6664 13.51009386 89500","mean_motion":13.51009386,"eccentricity":0.0014893,"inclination_deg":88.9718,"raan_deg":282.1951,"arg_perigee_deg":81.6175,"mean_anomaly_deg":278.6664,"bstar":0.00014328,"rev_number":8950,"period_min":106.58697229806,"perigee_km":1057.4567483703,"apogee_km":1079.6374416157,"semimajor_km":7446.684094993,"source":"CELESTRAK","updated_at":"2026-05-25T13:38:02.039159Z"}}}